KUIPER-00127

导读

KUIPER-00148是美国亚马逊公司柯伊伯(Project Kuiper)低轨卫星互联网项目的卫星,于2025年9月25日发射。该项目计划部署超3200颗低轨卫星,旨在为全球尤其是偏远地区提供高速低延迟、可负担的互联网接入服务,是全球低轨卫星通信星座部署的重要组成部分。KUIPER-00148加入星座后,将助力实现全球网络覆盖,并推动云通信一体化网络建设。

Basic Information
目录编号:
65769
目录名称:
KUIPER-00148
国际标识:
2025-217H
轨道中心:
EARTH
卫星名称:
KUIPER-00148
卫星全名:
KUIPER-00127
卫星状态:
在轨 (已飞行352 天)
发射日期:
2025-09-25 UTC
国别 :
美国 (US)
星等 :
--
This satellite is enrolled in the Space Conjunction Data Service (SCDS) and the current flight risk assessment level is: No High Risk
Orbit Information
数据来源 国际轨道数据 AOE轨道数据
星历时间 2026-09-11T17:04:30+0800
20小时前
查看轨道信息
2026-09-10T08:00:00+0800
2天前
查看轨道信息
半长轴 7007.676km 7007.737km
偏心率 0.0000287 0.0000882
轨道倾角 51.906° 51.905°
近地点辐角 75.905° 46.143°
升交点赤经 282.010° 288.106°
平近点角 284.194° 167.191°
近地点 629.337km 628.981km
远地点 629.741km 630.219km
周期 97.302分钟 97.303分钟
每日圈数 14.799321 14.799127
Detailed Information
使用方式:
暂无
2D Orbit Map
3D Orbit Map
Orbit Altitude Analysis Chart
Orbit Inclination Analysis Chart
Orbit Comprehensive Analysis Chart
View Comprehensive Chart
Miss Distance Evolution Trend with All Objects
Collision Probability Evolution Trend with All Objects